�N����,����,�~����,�C��,���x,�C��,����,���ϕ���,�ő�u�ԕ���,�ő厞����,���˗�,�I�_���x,�n�����x,�ő啗���N��,DTYPE
"23/01/03","00:10",0.0,1.8,92.1,1016.6,312.2,1.6,2.4,320.1,0.00,0.7,6.7,"00:08:16",1
"23/01/03","00:20",0.0,1.5,92.5,1016.4,320.7,1.5,2.2,310.3,0.00,0.5,6.6,"00:15:26",1
"23/01/03","00:30",0.0,1.0,92.8,1016.1,311.3,1.3,2.6,336.8,0.00,0.0,6.4,"00:24:16",1
"23/01/03","00:40",0.0,0.8,93.2,1015.9,330.5,1.1,2.5,333.0,0.00,-0.1,6.7,"00:31:28",1
"23/01/03","00:50",0.0,0.5,93.5,1015.2,319.1,1.3,2.0,333.8,0.00,-0.4,6.6,"00:48:16",1
"23/01/03","01:00",0.0,0.4,93.7,1015.6,315.9,1.2,2.2,318.4,0.00,-0.5,6.5,"00:57:36",1
"23/01/03","01:10",0.0,0.2,94.0,1015.9,303.2,0.7,1.4,278.2,0.00,-0.6,6.6,"01:08:24",1
"23/01/03","01:20",0.0,0.2,94.4,1015.4,310.5,0.6,1.3,309.6,0.00,-0.6,6.5,"01:10:08",1
"23/01/03","01:30",0.0,0.2,94.6,1015.9,321.1,1.5,2.1,307.8,0.00,-0.5,6.4,"01:26:16",1
"23/01/03","01:40",0.0,0.2,95.0,1015.4,327.6,1.3,1.9,348.4,0.00,-0.5,6.5,"01:38:56",1
"23/01/03","01:50",0.0,0.5,95.2,1015.6,346.2,1.2,2.1,336.0,0.00,-0.1,6.2,"01:41:12",1
"23/01/03","02:00",0.0,0.7,95.3,1015.4,285.1,1.2,2.1,320.1,0.00,0.1,6.3,"01:59:28",1
"23/01/03","02:10",0.0,1.0,95.4,1015.2,315.4,1.8,2.4,331.9,0.00,0.4,6.3,"02:01:44",1
"23/01/03","02:20",0.0,0.8,95.6,1015.4,331.9,1.8,2.7,330.0,0.00,0.2,6.4,"02:14:48",1
"23/01/03","02:30",0.0,1.0,95.8,1015.4,331.8,2.3,3.3,344.5,0.00,0.4,6.3,"02:20:24",1
"23/01/03","02:40",0.0,1.0,96.0,1015.4,329.9,2.2,2.6,337.2,0.00,0.5,6.2,"02:30:56",1
"23/01/03","02:50",0.0,1.1,96.1,1015.2,321.4,1.6,2.1,336.6,0.00,0.6,6.2,"02:41:36",1
"23/01/03","03:00",0.0,0.8,96.3,1015.6,281.1,1.1,1.8,320.7,0.00,0.3,6.2,"02:50:08",1
"23/01/03","03:10",0.0,1.0,96.5,1015.6,287.1,1.5,1.9,300.0,0.00,0.5,6.2,"03:05:52",1
"23/01/03","03:20",0.0,0.9,96.5,1015.6,315.1,1.1,1.9,319.8,0.00,0.4,6.2,"03:12:56",1
"23/01/03","03:30",0.0,0.4,96.7,1015.4,303.8,1.0,2.2,325.1,0.00,0.0,6.0,"03:26:00",1
"23/01/03","03:40",0.0,-0.2,97.0,1015.6,325.9,1.5,2.4,310.4,0.00,-0.6,6.1,"03:31:04",1
"23/01/03","03:50",0.0,-0.3,97.1,1015.4,325.4,1.2,2.0,317.4,0.00,-0.7,6.1,"03:43:52",1
"23/01/03","04:00",0.0,-0.1,97.3,1015.4,306.3,1.0,1.9,310.6,0.00,-0.4,6.0,"03:55:52",1
"23/01/03","04:10",0.0,0.0,97.3,1015.6,327.7,0.8,2.1,337.3,0.00,-0.3,6.1,"04:05:04",1
"23/01/03","04:20",0.0,-0.3,97.4,1015.6,306.3,1.2,2.6,328.1,0.00,-0.6,5.9,"04:19:12",1
"23/01/03","04:30",0.0,-0.6,97.6,1015.4,323.6,1.2,2.1,316.3,0.00,-0.9,6.1,"04:24:08",1
"23/01/03","04:40",0.0,-0.6,97.9,1015.2,281.9,1.0,1.4,316.3,0.00,-0.9,6.1,"04:36:40",1
"23/01/03","04:50",0.0,-0.3,97.9,1014.9,310.0,1.2,1.8,331.9,0.00,-0.6,6.0,"04:49:20",1
"23/01/03","05:00",0.0,0.0,98.0,1015.4,321.3,1.3,1.9,321.7,0.00,-0.2,6.0,"04:50:48",1
"23/01/03","05:10",0.0,0.3,97.4,1015.4,319.1,1.5,2.1,333.2,0.00,0.0,6.0,"05:09:42",1
"23/01/03","05:20",0.0,0.3,98.1,1015.2,313.8,1.7,2.5,320.3,0.00,0.1,5.8,"05:13:20",1
"23/01/03","05:30",0.0,0.6,97.4,1014.9,312.1,0.6,2.0,261.5,0.00,0.3,6.2,"05:20:02",1
"23/01/03","05:40",0.0,0.3,98.0,1015.2,315.2,1.3,1.8,261.1,0.00,0.1,5.8,"05:30:08",1
"23/01/03","05:50",0.0,0.3,97.5,1015.2,299.0,1.0,2.1,312.6,0.00,0.0,5.9,"05:41:28",1
"23/01/03","06:00",0.0,0.1,98.2,1014.9,278.5,1.0,1.6,305.6,0.00,-0.1,5.8,"05:58:24",1
"23/01/03","06:10",0.0,0.4,97.7,1014.9,302.3,1.6,1.8,312.4,0.00,0.1,5.7,"06:06:30",1
"23/01/03","06:20",0.0,0.3,98.3,1015.2,307.8,1.5,2.0,341.3,0.00,0.1,5.8,"06:14:20",1
"23/01/03","06:30",0.0,0.2,97.8,1015.2,273.6,1.7,2.1,266.4,0.00,-0.1,5.9,"06:29:32",1
"23/01/03","06:40",0.0,0.2,98.4,1015.4,298.7,1.3,2.0,319.9,0.00,0.0,5.7,"06:38:38",1
"23/01/03","06:50",0.0,0.3,97.9,1015.4,306.1,1.5,2.1,302.8,0.00,0.0,5.7,"06:43:20",1
"23/01/03","07:00",0.0,0.0,98.6,1015.6,293.7,1.5,1.8,312.0,0.00,-0.2,5.6,"06:57:44",1
"23/01/03","07:10",0.0,0.1,97.9,1015.2,290.7,1.2,1.6,314.2,0.00,-0.2,5.8,"07:00:08",1
"23/01/03","07:20",0.0,-0.1,98.7,1015.4,270.6,0.5,1.6,276.1,0.00,-0.2,5.8,"07:19:28",1
"23/01/03","07:30",0.0,-0.2,98.2,1015.4,284.5,1.3,1.8,309.9,0.00,-0.4,5.6,"07:26:32",1
"23/01/03","07:40",0.0,-0.1,98.2,1015.6,306.4,1.6,2.0,311.7,0.00,-0.3,5.6,"07:35:28",1
"23/01/03","07:50",0.0,-0.1,98.2,1015.6,285.3,1.5,1.8,320.6,0.00,-0.3,5.6,"07:46:48",1
"23/01/03","08:00",0.0,0.0,98.2,1015.9,295.7,1.7,2.4,320.4,0.00,-0.2,5.5,"07:56:16",1
"23/01/03","08:10",0.0,0.0,98.2,1016.4,302.9,1.3,2.1,318.1,0.00,-0.2,5.5,"08:00:40",1
"23/01/03","08:20",0.0,0.1,98.3,1016.6,292.5,1.6,1.9,303.4,0.01,-0.1,5.7,"08:11:20",1
"23/01/03","08:30",0.0,0.6,98.4,1016.1,295.3,1.1,2.0,311.1,0.01,0.4,5.4,"08:26:08",1
"23/01/03","08:40",0.0,1.0,98.3,1016.6,310.5,2.0,2.6,323.4,0.01,0.8,5.6,"08:34:00",1
"23/01/03","08:50",0.0,1.7,98.3,1016.8,325.2,1.3,2.4,326.8,0.03,1.5,5.7,"08:40:24",1
"23/01/03","09:00",0.0,2.3,98.0,1017.1,303.3,1.0,1.6,308.1,0.07,2.1,5.5,"08:51:44",1
"23/01/03","09:10",0.0,3.1,97.9,1017.5,235.8,0.6,1.3,239.0,0.10,2.8,5.6,"09:09:06",1
"23/01/03","09:20",0.0,3.6,98.3,1017.8,264.5,0.5,0.9,270.6,0.14,3.4,5.5,"09:17:12",1
"23/01/03","09:30",0.0,4.2,97.0,1018.2,241.9,0.6,1.0,217.3,0.10,3.8,5.7,"09:20:24",1
"23/01/03","09:40",0.0,3.8,97.9,1018.5,250.3,0.7,1.0,247.9,0.06,3.5,5.7,"09:31:20",1
"23/01/03","09:50",0.0,3.6,97.8,1018.0,262.4,0.6,1.7,329.9,0.07,3.3,5.5,"09:45:34",1
"23/01/03","10:00",0.0,3.9,97.9,1018.0,252.0,0.7,1.2,253.7,0.12,3.6,5.4,"09:57:38",1
"23/01/03","10:10",0.0,4.6,97.5,1018.5,275.1,0.8,1.6,336.2,0.22,4.3,5.6,"10:02:48",1
"23/01/03","10:20",0.0,5.2,96.9,1018.2,272.6,1.0,1.9,244.6,0.24,4.8,5.4,"10:10:42",1
"23/01/03","10:30",0.0,5.5,95.6,1018.5,236.5,1.2,2.5,233.0,0.26,4.9,5.7,"10:20:48",1
"23/01/03","10:40",0.0,6.0,94.4,1018.7,228.2,1.6,2.9,228.7,0.31,5.2,5.8,"10:33:28",1
"23/01/03","10:50",0.0,7.0,92.3,1019.0,197.2,1.3,3.5,219.2,0.32,5.9,5.9,"10:40:32",1
"23/01/03","11:00",0.0,7.5,87.4,1019.0,180.4,1.6,3.5,236.9,0.36,5.6,5.7,"10:53:20",1
"23/01/03","11:10",0.0,8.4,79.9,1019.0,235.4,1.1,3.5,251.0,0.36,5.2,5.8,"11:09:46",1
"23/01/03","11:20",0.0,8.4,72.6,1018.7,244.1,1.3,2.9,268.1,0.25,3.8,6.0,"11:19:26",1
"23/01/03","11:30",0.0,7.9,69.9,1018.5,314.6,2.5,5.1,337.7,0.18,2.8,5.8,"11:22:00",1
"23/01/03","11:40",0.0,8.4,67.5,1018.2,285.2,2.3,6.0,302.9,0.31,2.8,6.1,"11:34:52",1
"23/01/03","11:50",0.0,8.4,66.2,1018.0,279.6,2.6,6.2,327.4,0.30,2.5,6.2,"11:41:28",1
"23/01/03","12:00",0.0,9.1,64.8,1017.8,336.8,1.5,3.6,324.5,0.39,2.9,6.0,"11:50:32",1
"23/01/03","12:10",0.0,8.9,63.2,1017.3,319.7,2.2,4.3,306.8,0.27,2.3,6.2,"12:09:36",1
"23/01/03","12:20",0.0,9.0,62.4,1017.3,326.9,2.2,4.2,327.2,0.35,2.2,6.2,"12:10:40",1
"23/01/03","12:30",0.0,8.7,61.4,1017.1,344.1,2.2,7.0,340.3,0.20,1.7,6.4,"12:25:26",1
"23/01/03","12:40",0.0,8.4,62.3,1016.4,292.7,2.7,4.7,348.0,0.17,1.7,6.4,"12:34:24",1
"23/01/03","12:50",0.0,8.4,62.3,1016.4,292.5,2.7,5.4,336.3,0.17,1.7,6.4,"12:41:36",1
"23/01/03","13:00",0.0,8.2,62.6,1016.4,293.2,3.6,7.5,333.9,0.24,1.5,6.5,"12:56:26",1
"23/01/03","13:10",0.0,8.2,63.3,1016.1,312.6,3.4,6.4,300.0,0.14,1.7,6.7,"13:00:10",1
"23/01/03","13:20",0.0,8.2,62.3,1015.9,290.3,4.0,6.8,315.4,0.22,1.5,6.7,"13:19:44",1
"23/01/03","13:30",0.0,8.5,61.6,1015.9,290.6,3.6,7.4,277.2,0.28,1.6,6.7,"13:29:50",1
"23/01/03","13:40",0.0,8.7,60.1,1015.6,291.6,4.2,6.7,333.9,0.26,1.4,6.7,"13:34:24",1
"23/01/03","13:50",0.0,9.4,57.9,1015.6,307.5,4.6,7.3,312.7,0.43,1.6,6.7,"13:42:32",1
"23/01/03","14:00",0.0,9.8,57.3,1015.4,325.5,3.7,5.8,333.4,0.47,1.8,6.7,"13:55:08",1
"23/01/03","14:10",0.0,9.7,57.7,1015.4,325.3,4.1,8.6,349.0,0.45,1.8,7.0,"14:01:22",1
"23/01/03","14:20",0.0,9.7,57.3,1015.4,338.9,4.2,8.8,344.8,0.43,1.7,6.7,"14:13:28",1
"23/01/03","14:30",0.0,9.8,56.8,1015.4,309.9,3.7,8.8,323.8,0.37,1.7,7.0,"14:24:32",1
"23/01/03","14:40",0.0,9.1,58.0,1015.4,327.2,4.1,7.0,338.6,0.24,1.3,7.0,"14:33:14",1
"23/01/03","14:50",0.0,8.6,59.3,1015.4,318.0,3.2,5.2,342.2,0.07,1.2,7.1,"14:49:56",1
"23/01/03","15:00",0.0,9.2,58.4,1015.2,323.2,3.6,5.8,341.0,0.24,1.5,7.2,"14:51:52",1
"23/01/03","15:10",0.0,8.5,57.0,1015.2,337.8,3.5,6.6,311.4,0.08,0.5,7.0,"15:03:18",1
"23/01/03","15:20",0.0,8.5,58.9,1014.9,327.0,3.6,6.8,295.2,0.10,1.0,7.2,"15:10:56",1
"23/01/03","15:30",0.0,8.9,57.5,1014.9,319.1,2.7,4.7,348.6,0.10,1.0,7.2,"15:24:50",1
"23/01/03","15:40",0.0,8.8,57.8,1014.7,292.4,3.1,5.6,246.9,0.07,1.0,7.4,"15:35:22",1
"23/01/03","15:50",0.0,8.9,57.9,1014.7,316.1,3.9,7.8,330.7,0.10,1.1,7.4,"15:45:52",1
"23/01/03","16:00",0.0,9.7,54.7,1014.9,301.4,2.7,5.4,344.0,0.15,1.1,7.3,"15:52:20",1
"23/01/03","16:10",0.0,9.2,55.0,1014.9,284.6,2.7,5.2,263.0,0.06,0.7,7.4,"16:06:12",1
"23/01/03","16:20",0.0,9.0,55.8,1014.9,306.9,3.5,5.1,267.3,0.05,0.7,7.2,"16:18:38",1
"23/01/03","16:30",0.0,8.6,58.0,1014.9,315.1,2.6,4.7,348.1,0.02,0.9,7.5,"16:20:16",1
"23/01/03","16:40",0.0,8.6,56.7,1015.2,326.1,4.0,8.6,357.3,0.03,0.5,7.4,"16:37:08",1
"23/01/03","16:50",0.0,8.7,55.0,1015.2,326.4,3.0,4.8,343.7,0.02,0.2,7.4,"16:47:22",1
"23/01/03","17:00",0.0,8.3,54.3,1015.6,310.8,2.7,5.5,295.5,0.00,-0.3,7.6,"16:53:12",1
"23/01/03","17:10",0.0,7.8,56.3,1014.9,309.7,2.7,4.1,340.8,0.00,-0.3,7.5,"17:01:36",1
"23/01/03","17:20",0.0,7.6,58.1,1015.2,335.2,2.1,4.9,353.3,0.00,-0.1,7.4,"17:19:28",1
"23/01/03","17:30",0.0,7.4,58.4,1015.2,325.7,3.2,5.4,328.9,0.00,-0.2,7.4,"17:20:56",1
"23/01/03","17:40",0.0,7.3,58.2,1014.9,307.2,3.2,6.0,334.6,0.00,-0.3,7.5,"17:31:36",1
"23/01/03","17:50",0.0,7.0,59.3,1015.2,308.3,2.7,4.7,345.5,0.00,-0.3,7.5,"17:43:36",1
"23/01/03","18:00",0.0,6.6,60.4,1014.7,308.2,1.5,2.5,322.8,0.00,-0.5,7.2,"17:50:56",1
"23/01/03","18:10",0.0,5.9,61.9,1015.4,277.5,1.0,1.4,279.6,0.00,-0.8,7.5,"18:03:12",1
"23/01/03","18:20",0.0,5.5,64.1,1015.2,300.3,1.0,2.2,299.2,0.00,-0.7,7.4,"18:10:56",1
"23/01/03","18:30",0.0,5.0,66.6,1015.6,295.9,1.1,2.6,320.7,0.00,-0.7,7.3,"18:22:16",1
"23/01/03","18:40",0.0,4.8,68.8,1015.2,330.6,1.0,2.0,330.6,0.00,-0.4,7.3,"18:30:24",1
"23/01/03","18:50",0.0,4.5,70.6,1014.9,276.4,0.8,1.7,284.3,0.00,-0.3,7.4,"18:45:16",1
"23/01/03","19:00",0.0,4.5,71.9,1015.2,294.1,0.7,1.9,300.1,0.00,-0.1,7.3,"18:59:56",1
"23/01/03","19:10",0.0,4.1,73.1,1015.4,319.1,1.5,2.4,339.2,0.00,-0.2,7.2,"19:02:24",1
"23/01/03","19:20",0.0,3.9,74.5,1014.9,345.3,1.5,2.4,348.5,0.00,-0.2,7.2,"19:14:08",1
"23/01/03","19:30",0.0,3.7,75.6,1014.9,328.5,1.5,2.5,294.0,0.00,-0.2,7.3,"19:24:22",1
"23/01/03","19:40",0.0,3.8,76.4,1015.2,342.9,0.8,2.0,8.4,0.00,0.1,6.9,"19:37:58",1
"23/01/03","19:50",0.0,4.1,76.6,1015.4,124.3,0.6,1.6,352.5,0.00,0.4,7.1,"19:41:36",1
"23/01/03","20:00",0.0,4.0,77.0,1015.4,347.6,1.0,1.4,339.1,0.00,0.4,7.0,"19:54:48",1
"23/01/03","20:10",0.0,3.6,77.7,1015.2,342.2,1.1,1.8,337.2,0.00,0.1,6.9,"20:09:40",1
"23/01/03","20:20",0.0,3.3,78.3,1014.9,340.6,0.3,0.9,328.4,0.00,-0.1,7.0,"20:11:44",1
"23/01/03","20:30",0.0,2.7,79.1,1015.2,300.5,1.2,1.4,304.7,0.00,-0.5,7.0,"20:27:04",1
"23/01/03","20:40",0.0,2.6,80.2,1015.2,281.3,1.0,1.6,295.0,0.00,-0.4,6.9,"20:36:56",1
"23/01/03","20:50",0.0,3.0,81.0,1015.4,314.0,1.5,2.1,338.2,0.00,0.1,6.8,"20:45:42",1
"23/01/03","21:00",0.0,3.1,81.8,1015.4,348.7,1.2,1.6,341.3,0.00,0.3,7.0,"20:51:28",1
"23/01/03","21:10",0.0,3.1,82.9,1014.9,340.0,1.5,2.4,353.4,0.00,0.5,6.9,"21:07:30",1
"23/01/03","21:20",0.0,3.6,83.5,1014.9,101.3,0.8,1.9,105.8,0.00,1.1,6.6,"21:14:48",1
"23/01/03","21:30",0.0,3.5,83.7,1015.2,145.2,0.6,0.8,130.1,0.00,1.0,6.9,"21:23:40",1
"23/01/03","21:40",0.0,3.4,84.0,1015.2,271.8,1.6,2.9,332.5,0.00,1.0,6.7,"21:39:34",1
"23/01/03","21:50",0.0,3.0,84.0,1015.2,303.7,1.7,2.5,323.1,0.00,0.6,6.8,"21:41:28",1
"23/01/03","22:00",0.0,2.9,84.5,1015.4,312.4,1.1,1.9,306.0,0.00,0.6,6.8,"21:53:52",1
"23/01/03","22:10",0.0,2.9,84.8,1015.2,300.0,1.5,2.7,301.8,0.00,0.6,6.6,"22:04:12",1
"23/01/03","22:20",0.0,2.5,85.1,1014.9,349.2,0.6,0.8,344.9,0.00,0.3,6.6,"22:15:20",1
"23/01/03","22:30",0.0,2.2,85.8,1015.4,319.3,1.1,1.4,330.7,0.00,0.1,6.7,"22:25:38",1
"23/01/03","22:40",0.0,1.7,86.4,1015.2,310.1,1.5,2.1,338.1,0.00,-0.3,6.6,"22:39:44",1
"23/01/03","22:50",0.0,1.4,87.1,1014.5,306.1,1.3,2.2,321.4,0.00,-0.5,6.4,"22:49:02",1
"23/01/03","23:00",0.0,1.5,87.9,1014.9,324.1,1.6,2.7,326.0,0.00,-0.2,6.4,"22:54:16",1
"23/01/03","23:10",0.0,1.2,88.6,1014.9,323.9,1.5,2.2,308.2,0.00,-0.4,6.4,"23:08:24",1
"23/01/03","23:20",0.0,0.9,89.1,1014.7,295.3,1.0,2.0,338.8,0.00,-0.6,6.6,"23:10:08",1
"23/01/03","23:30",0.0,0.9,89.8,1014.7,321.4,1.3,2.2,339.9,0.00,-0.5,6.6,"23:21:36",1
"23/01/03","23:40",0.0,0.6,90.4,1014.5,325.5,1.1,1.8,309.2,0.00,-0.7,6.5,"23:31:12",1
"23/01/03","23:50",0.0,0.4,90.8,1014.5,309.4,1.1,2.5,341.1,0.00,-0.9,6.3,"23:44:32",1
"23/01/03","24:00",0.0,0.3,91.3,1014.2,319.7,1.2,2.0,301.6,0.00,-0.9,6.2,"23:56:56",1
